Location: Newark
(34.6283°N, 36.0776°E)
Time: 15:35:55
(UTC+00:00)

Explorer 11/Cluster Stage 4 - All Passes

Search period start: 19 September 2019 00:00
Search period end: 29 September 2019 00:00
Orbit: 467 x 1260 km, 28.8° (Epoch: 19 September)

Date Brightness Start Highest point End Pass type
(mag) Time Alt. Az. Time Alt. Az. Time Alt. Az.
19 Sep - 01:23:20 10° SW 01:24:38 12° SSW 01:25:57 10° S visible
19 Sep - 17:59:10 10° S 18:02:06 13° SSE 18:04:47 10° SE visible
19 Sep - 19:45:33 10° SW 19:50:23 28° SSE 19:54:25 10° ESE night (unlit)
19 Sep - 21:33:59 10° WSW 21:38:31 38° S 21:42:19 10° ESE night (unlit)
19 Sep - 23:22:53 10° WSW 23:26:26 27° SSW 23:29:37 10° SE night (unlit)
20 Sep - 17:47:22 10° SSW 17:51:24 17° SSE 17:55:00 10° ESE visible
20 Sep - 19:34:28 10° SW 19:39:46 32° S 19:44:06 10° ESE night (unlit)
20 Sep - 21:23:10 10° WSW 21:27:58 40° S 21:31:55 10° ESE night (unlit)
20 Sep - 23:12:17 10° WSW 23:15:52 26° SSW 23:19:04 10° SE night (unlit)
21 Sep - 17:35:48 10° SSW 17:40:42 20° SSE 17:44:59 10° ESE visible
21 Sep - 19:23:26 10° SW 19:29:07 36° S 19:33:45 10° ESE visible
21 Sep - 21:12:21 10° WSW 21:17:23 42° S 21:21:29 10° ESE night (unlit)
21 Sep - 23:01:38 10° WSW 23:05:17 24° SSW 23:08:29 10° SE night (unlit)
22 Sep - 17:24:23 10° SSW 17:29:58 24° SSE 17:34:47 10° ESE visible
22 Sep - 19:12:24 10° WSW 19:18:28 40° S 19:23:22 10° ESE visible
22 Sep - 21:01:30 10° WSW 21:06:47 42° S 21:11:03 10° ESE night (unlit)
22 Sep - 22:51:01 10° WSW 22:54:40 23° SSW 22:57:53 10° SSE night (unlit)
23 Sep - 15:28:16 10° S 15:30:40 12° SSE 15:32:59 10° SE daylight
23 Sep - 17:13:04 10° SW 17:19:12 28° SSE 17:24:30 10° ESE visible
23 Sep - 19:01:23 10° WSW 19:07:47 44° S 19:12:56 10° ESE visible
23 Sep - 20:50:39 10° WSW 20:56:10 43° S 21:00:36 10° ESE night (unlit)
23 Sep - 22:40:23 10° WSW 22:44:03 21° SSW 22:47:14 10° SSE night (unlit)
24 Sep - 15:15:55 10° S 15:19:50 14° SSE 15:23:33 10° ESE daylight
24 Sep - 17:01:49 10° SW 17:08:26 32° SSE 17:14:08 10° ESE visible
24 Sep - 18:50:24 10° WSW 18:57:06 47° S 19:02:31 10° ESE visible
24 Sep - 20:39:47 10° W 20:45:32 42° S 20:50:08 10° ESE night (unlit)
24 Sep - 22:29:45 10° WSW 22:33:23 20° SSW 22:36:34 10° SSE night (unlit)
25 Sep - 15:04:06 10° S 15:08:59 17° SSE 15:13:37 10° ESE daylight
25 Sep - 16:50:38 10° SW 16:57:38 36° SSE 17:03:41 10° E visible
25 Sep - 18:39:24 10° WSW 18:46:22 50° S 18:52:02 10° ESE visible
25 Sep - 20:28:55 10° W 20:34:51 42° SSW 20:39:38 10° ESE night (unlit)
25 Sep - 22:19:08 10° WSW 22:22:42 18° SSW 22:25:49 10° SSE night (unlit)
26 Sep - 14:52:30 10° SSW 14:58:07 20° SSE 15:03:26 10° ESE daylight
26 Sep - 16:39:30 10° SW 16:46:49 40° SSE 16:53:12 10° E visible
26 Sep - 18:28:26 10° WSW 18:35:38 52° S 18:41:32 10° ESE visible
26 Sep - 20:18:01 10° W 20:24:10 41° SSW 20:29:07 10° SE night (unlit)
26 Sep - 22:08:32 10° WSW 22:11:59 17° SSW 22:15:02 10° S night (unlit)
27 Sep - 14:41:05 10° SSW 14:47:13 23° SSE 14:53:06 10° ESE daylight
27 Sep - 16:28:26 10° SW 16:35:59 43° SSE 16:42:40 10° E visible
27 Sep - 18:17:28 10° WSW 18:24:53 54° S 18:31:00 10° ESE visible
27 Sep - 20:07:09 10° W 20:13:26 39° SSW 20:18:33 10° SE visible
27 Sep - 21:57:59 10° WSW 22:01:15 15° SSW 22:04:09 10° S night (unlit)
28 Sep - 14:29:47 10° SSW 14:36:19 26° SSE 14:42:39 10° ESE daylight
28 Sep - 16:17:24 10° WSW 16:25:08 47° SSE 16:32:05 10° E visible
28 Sep - 18:06:31 10° WSW 18:14:06 54° S 18:20:27 10° ESE visible
28 Sep - 19:56:16 10° W 20:02:41 38° SSW 20:07:57 10° SE visible
28 Sep - 21:47:31 10° WSW 21:50:29 14° SSW 21:53:10 10° S night (unlit)
